星链-33951 (STARLINK-33951)

导读

STARLINK-33951是美国于2025年5月2日发射的一颗星链卫星,归属SpaceX公司的星链互联网卫星星座网络。星链项目旨在通过近地轨道卫星群,为全球提供高速互联网覆盖服务。作为星链组网的组成部分,该卫星将与其他星链卫星协同,拓展全球网络覆盖范围,提升低轨卫星互联网服务的容量与稳定性。

基本信息
目录编号:
63803
目录名称:
STARLINK-33951
国际标识:
2025-091AD
轨道中心:
EARTH
卫星名称:
星链-33951
卫星全名:
星链-33951 (STARLINK-33951)
卫星状态:
在轨 (已飞行497 天)
发射日期:
2025-05-02 UTC
国别 :
美国 (US)
星等 :
--
该卫星已列入 空间交会检测服务 Space Conjunction Data Service (SCDS) ,当前飞行风险评估等级: 高风险
轨道信息
数据来源 国际轨道数据
星历时间: 2026-09-09T14:52:20+0800
2天前
查看轨道信息
半长轴: 6861.075km
偏心率: 0.0000781
轨道倾角: 43.006°
近地点辐角 296.933°
升交点赤经 95.429°
平近点角 63.144°
近地点: 482.402km
远地点: 483.474km
周期: 94.264分钟
每日圈数: 15.276174
详细信息
固有亮度:
5
最大亮度:
2.5
卫星平台:
Starlink V1.0
覆盖范围:
全球
运营商:
太空探索技术公司
运营商所在国:
美国
制造商(研发单位):
太空探索技术公司
制造商所在国:
美国
使用方式:
暂无
卫星简介
Starlink 计划是 SpaceX 推出的全球卫星互联网项目,通过发射低轨道卫星,为全球尤其是偏远地区提供高速、低延迟的互联网服务。自 2019 年起,Starlink 已部署数千颗卫星,旨在缩小全球数字鸿沟,推动互联网普及。该项目还为军事、航空等行业提供通信支持,带来广泛经济效益。
2D轨道图
3D轨道图
轨道高度分析图
轨道倾角分析图
轨道综合分析图
查看轨道综合分析图
交会数据列表
事件ID 空间交会对象 最接近时刻(TCA) 交会距离 交会风险概率(CRP) 交会风险指数(CRI) 操作
CDM_260912-122805-629106-380321
2026-09-12T
12:28:35+0000
0.039 km
近距离
1.500395E-3 极高风险 0.99
CDM_260911-235105-932706-380321
2026-09-11T
23:51:46+0000
0.099 km
近距离
1.130036E-3 极高风险 0.96
CDM_260913-023206-380306-794321
2026-09-13T
02:32:52+0000
0.155 km
中距离
8.663835E-4 高风险 0.94
CDM_260912-153506-380306-407821
2026-09-12T
15:35:38+0000
0.368 km
远距离
3.08084E-4 高风险 0.85
CDM_260912-235706-380306-385121
2026-09-12T
23:57:46+0000
0.550 km
远距离
5.262439E-5 中风险 0.69
CDM_260912-174806-306606-380321
2026-09-12T
17:48:47+0000
0.725 km
远距离
4.92027E-5 中风险 0.69
CDM_260912-192206-306606-380321
2026-09-12T
19:22:55+0000
0.749 km
远距离
4.451255E-5 中风险 0.68
CDM_260911-180305-904506-380321
2026-09-11T
18:03:45+0000
0.629 km
远距离
3.766802E-5 中风险 0.67
CDM_260913-040706-380306-794321
2026-09-13T
04:07:01+0000
0.909 km
远距离
2.796082E-5 中风险 0.64
CDM_260911-111206-306606-380321
2026-09-11T
11:12:52+0000
1.089 km
极远距离
1.267624E-5 中风险 0.57
与全量物体交会距离演化趋势
与全量物体交会风险概率演化趋势